GW5895 Weather Reports


Display with metric or nautical units.
time (UTC)temp
F
wind
direction
speed
MPH
gust
MPH
rain 1hr
in
rain 24hr
in
rain mn
in
humidity
%
barometer
mb
20260905214350 88 220 0.0 0.0 0.00 0.00 0.00 67 1011.4
20260905213845 88 220 0.0 0.0 0.00 0.00 0.00 67 1011.4
20260905213342 88 220 0.0 0.0 0.00 0.00 0.00 68 1011.6
20260905212841 87 220 0.0 0.0 0.00 0.00 0.00 67 1012.0
20260905212336 87 220 0.0 0.0 0.00 0.00 0.00 67 1011.7
20260905211835 87 220 0.0 0.0 0.00 0.00 0.00 66 1011.5
20260905211331 88 220 0.0 0.0 0.00 0.00 0.00 67 1011.5
20260905210828 89 220 0.0 0.0 0.00 0.00 0.00 64 1011.7
20260905210328 89 220 0.0 1.0 0.00 0.00 0.00 63 1011.8
20260905205827 90 221 0.0 0.0 0.00 0.00 0.00 61 1011.8
20260905205327 91 221 0.0 0.0 0.00 0.00 0.00 63 1011.9
20260905204826 91 221 0.0 0.0 0.00 0.00 0.00 60 1012.0
20260905204322 90 222 0.0 0.0 0.00 0.00 0.00 61 1012.1
20260905203821 90 221 0.0 0.0 0.00 0.00 0.00 63 1012.0
20260905203317 90 221 0.0 0.0 0.00 0.00 0.00 61 1011.9
20260905202812 90 221 0.0 0.0 0.00 0.00 0.00 60 1012.1
20260905202307 91 221 0.0 0.0 0.00 0.00 0.00 60 1012.0
20260905201803 91 221 0.0 0.0 0.00 0.00 0.00 58 1012.2
20260905201258 93 222 0.0 0.0 0.00 0.00 0.00 58 1012.3
20260905200753 94 213 0.0 0.0 0.00 0.00 0.00 54 1012.2
20260905200249 94 224 1.0 1.0 0.00 0.00 0.00 53 1012.3
20260905195746 94 193 1.0 1.0 0.00 0.00 0.00 54 1012.2
20260905195242 95 196 0.0 0.0 0.00 0.00 0.00 52 1012.2
20260905194737 95 212 0.0 0.0 0.00 0.00 0.00 51 1012.2
20260905194237 94 233 0.0 0.0 0.00 0.00 0.00 53 1012.3
20260905193736 94 174 0.0 0.0 0.00 0.00 0.00 53 1012.2
20260905193231 94 227 0.0 0.0 0.00 0.00 0.00 53 1012.2
20260905192727 93 212 0.0 0.0 0.00 0.00 0.00 55 1012.4
20260905192223 95 212 1.0 1.0 0.00 0.00 0.00 52 1012.6
20260905191722 96 210 0.0 1.0 0.00 0.00 0.00 51 1012.5
20260905191220 96 219 0.0 0.0 0.00 0.00 0.00 51 1012.6
20260905190719 94 202 0.0 0.0 0.00 0.00 0.00 53 1012.7
20260905190218 95 246 1.0 2.0 0.00 0.00 0.00 51 1012.8
20260905185718 94 216 0.0 0.0 0.00 0.00 0.00 52 1012.7
20260905185212 94 172 0.0 0.0 0.00 0.00 0.00 52 1012.8
20260905184707 94 172 0.0 1.0 0.00 0.00 0.00 54 1012.8
20260905184206 96 215 1.0 1.0 0.00 0.00 0.00 51 1013.0
20260905183659 95 190 0.0 1.0 0.00 0.00 0.00 49 1013.0
20260905183155 95 200 0.0 1.0 0.00 0.00 0.00 48 1013.3
20260905182654 94 178 0.0 0.0 0.00 0.00 0.00 51 1013.3
20260905182154 94 201 0.0 0.0 0.00 0.00 0.00 49 1013.4
20260905181650 95 195 0.0 1.0 0.00 0.00 0.00 50 1013.4
20260905181148 95 198 0.0 0.0 0.00 0.00 0.00 50 1013.2
20260905180643 95 178 0.0 0.0 0.00 0.00 0.00 50 1013.4
20260905180139 94 197 1.0 1.0 0.00 0.00 0.00 51 1013.3
20260905175637 93 182 0.0 0.0 0.00 0.00 0.00 52 1013.5
20260905175133 93 182 0.0 0.0 0.00 0.00 0.00 50 1013.5
20260905174629 93 227 0.0 1.0 0.00 0.00 0.00 51 1013.6
20260905174124 93 205 0.0 1.0 0.00 0.00 0.00 50 1013.7
20260905173620 93 192 0.0 0.0 0.00 0.00 0.00 52 1013.7
20260905173116 93 206 0.0 0.0 0.00 0.00 0.00 51 1013.7
20260905172614 92 199 0.0 0.0 0.00 0.00 0.00 53 1013.7
20260905172109 91 237 0.0 1.0 0.00 0.00 0.00 52 1014.0
20260905171606 90 211 0.0 0.0 0.00 0.00 0.00 55 1013.8
20260905171101 89 214 0.0 1.0 0.00 0.00 0.00 58 1014.1
20260905170558 87 211 0.0 0.0 0.00 0.00 0.00 57 1014.2
20260905170053 88 209 0.0 1.0 0.00 0.00 0.00 56 1014.2
20260905165548 88 208 0.0 1.0 0.00 0.00 0.00 56 1014.5
20260905165043 89 137 0.0 0.0 0.00 0.00 0.00 56 1014.3
20260905164543 87 159 0.0 0.0 0.00 0.00 0.00 56 1014.6
20260905164038 86 190 0.0 0.0 0.00 0.00 0.00 58 1014.7
20260905163534 85 182 0.0 0.0 0.00 0.00 0.00 61 1014.5
20260905163030 85 194 0.0 1.0 0.00 0.00 0.00 61 1014.9
20260905162526 85 196 0.0 0.0 0.00 0.00 0.00 63 1014.9
20260905162020 86 190 0.0 0.0 0.00 0.00 0.00 60 1014.7
20260905161520 84 213 0.0 0.0 0.00 0.00 0.00 62 1014.8
20260905161018 82 213 0.0 0.0 0.00 0.00 0.00 67 1014.8
20260905160517 81 210 0.0 0.0 0.00 0.00 0.00 69 1014.8
20260905160017 80 210 0.0 0.0 0.00 0.00 0.00 69 1014.7
20260905155512 81 210 0.0 0.0 0.00 0.00 0.00 66 1015.0
20260905155010 82 212 0.0 0.0 0.00 0.00 0.00 65 1014.8
20260905154506 82 194 0.0 0.0 0.00 0.00 0.00 65 1014.8
20260905154001 84 195 0.0 0.0 0.00 0.00 0.00 64 1014.8
20260905153457 84 216 1.0 1.0 0.00 0.00 0.00 61 1014.9
20260905152957 84 190 0.0 1.0 0.00 0.00 0.00 61 1014.8
20260905152456 85 171 0.0 0.0 0.00 0.00 0.00 61 1014.8
20260905151956 85 161 2.0 2.0 0.00 0.00 0.00 60 1015.0
20260905151453 84 196 0.0 0.0 0.00 0.00 0.00 63 1015.0
20260905150953 83 136 0.0 1.0 0.00 0.00 0.00 62 1014.9
20260905150448 83 180 0.0 0.0 0.00 0.00 0.00 64 1014.8
20260905145944 82 180 0.0 1.0 0.00 0.00 0.00 64 1014.8
20260905145439 82 150 0.0 0.0 0.00 0.00 0.00 65 1014.7
20260905144938 82 186 0.0 0.0 0.00 0.00 0.00 65 1014.9
20260905144434 80 189 0.0 0.0 0.00 0.00 0.00 67 1014.8
20260905143932 79 204 0.0 0.0 0.00 0.00 0.00 70 1014.9
20260905143427 80 197 1.0 1.0 0.00 0.00 0.00 68 1014.8
20260905142926 80 102 2.0 2.0 0.00 0.00 0.00 67 1014.9
20260905142425 79 195 0.0 1.0 0.00 0.00 0.00 69 1015.0
20260905141921 79 140 1.0 1.0 0.00 0.00 0.00 69 1015.0
20260905141416 78 141 1.0 1.0 0.00 0.00 0.00 71 1015.0
20260905140912 77 207 0.0 0.0 0.00 0.00 0.00 73 1015.1
20260905140407 76 158 0.0 0.0 0.00 0.00 0.00 73 1015.1
20260905135906 76 189 0.0 0.0 0.00 0.00 0.00 75 1014.9
20260905135401 75 131 0.0 1.0 0.00 0.00 0.00 76 1015.1
20260905134857 75 133 1.0 1.0 0.00 0.00 0.00 76 1015.2
20260905134355 75 152 2.0 2.0 0.00 0.00 0.00 76 1015.2
20260905133850 75 130 1.0 1.0 0.00 0.00 0.00 75 1015.2
20260905133345 75 160 1.0 1.0 0.00 0.00 0.00 76 1015.2
20260905132845 75 153 0.0 0.0 0.00 0.00 0.00 75 1015.2
20260905132341 75 198 0.0 0.0 0.00 0.00 0.00 76 1015.3
20260905131840 75 118 1.0 2.0 0.00 0.00 0.00 75 1015.3
20260905131336 74 191 0.0 0.0 0.00 0.00 0.00 77 1015.3
20260905130831 74 176 1.0 1.0 0.00 0.00 0.00 77 1015.3
20260905130329 74 348 0.0 1.0 0.00 0.00 0.00 77 1015.2
20260905125825 74 141 0.0 1.0 0.00 0.00 0.00 77 1015.2
20260905125320 74 188 0.0 0.0 0.00 0.00 0.00 77 1015.2
20260905124816 74 159 0.0 0.0 0.00 0.00 0.00 78 1015.0
20260905124312 74 205 0.0 1.0 0.00 0.00 0.00 76 1015.2
20260905123807 74 104 1.0 2.0 0.00 0.00 0.00 77 1015.0
20260905123304 74 136 0.0 0.0 0.00 0.00 0.00 78 1015.0
20260905122803 73 110 2.0 2.0 0.00 0.00 0.00 78 1015.1
20260905122306 73 122 0.0 0.0 0.00 0.00 0.00 79 1015.0
20260905121758 73 163 1.0 1.0 0.00 0.00 0.00 79 1014.9
20260905121255 72 143 1.0 1.0 0.00 0.00 0.00 80 1015.0
20260905120753 72 153 1.0 1.0 0.00 0.00 0.00 80 1015.0
20260905120253 72 144 0.0 0.0 0.00 0.00 0.00 81 1014.9
20260905115749 72 130 1.0 1.0 0.00 0.00 0.00 81 1015.0
20260905115248 72 159 0.0 0.0 0.00 0.00 0.00 82 1015.1
20260905114748 72 159 0.0 0.0 0.00 0.00 0.00 81 1014.9
20260905114247 72 161 0.0 0.0 0.00 0.00 0.00 82 1014.9
20260905113746 72 161 0.0 0.0 0.00 0.00 0.00 81 1014.9
20260905113242 72 143 0.0 0.0 0.00 0.00 0.00 81 1014.8
20260905112737 72 141 0.0 1.0 0.00 0.00 0.00 82 1014.6
20260905112232 72 133 0.0 0.0 0.00 0.00 0.00 81 1015.0
20260905111727 73 149 0.0 0.0 0.00 0.00 0.00 82 1014.8
20260905111227 73 167 1.0 1.0 0.00 0.00 0.00 81 1014.9
20260905110726 73 147 1.0 1.0 0.00 0.00 0.00 81 1014.8
20260905110220 73 142 0.0 0.0 0.00 0.00 0.00 81 1014.8
20260905105716 73 151 2.0 3.0 0.00 0.00 0.00 80 1014.9
20260905105214 73 138 0.0 0.0 0.00 0.00 0.00 80 1014.8
20260905104709 74 136 0.0 1.0 0.00 0.00 0.00 80 1014.8
20260905104206 74 199 1.0 1.0 0.00 0.00 0.00 80 1014.9
20260905103700 75 101 3.0 4.0 0.00 0.00 0.00 82 1014.7
20260905103156 75 136 0.0 0.0 0.00 0.00 0.00 82 1014.6
20260905102652 76 108 0.0 1.0 0.00 0.00 0.00 84 1014.7
20260905102148 76 133 1.0 1.0 0.00 0.00 0.00 93 1014.7
20260905101647 75 132 1.0 1.0 0.00 0.00 0.00 94 1014.2
20260905101145 75 154 0.0 0.0 0.00 0.00 0.00 94 1013.6
20260905100642 75 154 0.0 0.0 0.00 0.00 0.00 94 1013.4
20260905100137 75 154 0.0 0.0 0.00 0.00 0.00 94 1013.5
20260905095630 75 154 0.0 0.0 0.00 0.00 0.00 94 1013.5
20260905095125 76 154 0.0 0.0 0.00 0.00 0.00 94 1013.4
20260905094621 76 154 0.0 0.0 0.00 0.00 0.00 94 1013.3
20260905094120 76 154 0.0 0.0 0.00 0.00 0.00 94 1013.3
20260905093621 76 154 0.0 0.0 0.00 0.00 0.00 94 1013.3
20260905093117 76 154 0.0 0.0 0.00 0.00 0.00 94 1013.4
20260905092616 75 154 0.0 0.0 0.00 0.00 0.00 94 1013.3
20260905092112 75 154 0.0 0.0 0.00 0.00 0.00 94 1013.2
20260905091611 75 154 0.0 0.0 0.00 0.00 0.00 94 1013.4
20260905091106 75 154 0.0 0.0 0.00 0.00 0.00 93 1013.4
20260905090606 75 154 0.0 0.0 0.00 0.00 0.00 93 1013.2
20260905085600 75 154 0.0 0.0 0.00 0.00 0.00 93 1013.3
20260905085056 76 154 0.0 0.0 0.00 0.00 0.00 93 1013.1
20260905084556 76 154 0.0 0.0 0.00 0.00 0.00 93 1013.4
20260905084051 76 154 0.0 0.0 0.00 0.00 0.00 93 1013.3
20260905083550 76 154 0.0 0.0 0.00 0.00 0.00 93 1013.2
20260905083047 76 154 0.0 0.0 0.00 0.00 0.00 93 1013.3
20260905082542 76 154 0.0 0.0 0.00 0.00 0.00 92 1013.3
20260905082038 76 154 0.0 0.0 0.00 0.00 0.00 92 1013.2
20260905081537 76 154 0.0 0.0 0.00 0.00 0.00 92 1013.1
20260905081033 76 154 0.0 0.0 0.00 0.00 0.00 92 1013.3
20260905080533 76 154 0.0 0.0 0.00 0.00 0.00 91 1013.3
20260905080028 76 154 0.0 0.0 0.00 0.00 0.00 91 1013.1
20260905075527 77 154 0.0 0.0 0.00 0.00 0.00 91 1012.9
20260905075027 77 154 0.0 0.0 0.00 0.00 0.00 90 1012.8
20260905074521 77 154 0.0 0.0 0.00 0.00 0.00 90 1012.8
20260905074017 77 154 0.0 0.0 0.00 0.00 0.00 90 1012.7
20260905073512 77 154 0.0 0.0 0.00 0.00 0.00 90 1012.6
20260905073008 77 154 0.0 0.0 0.00 0.00 0.00 91 1012.3
20260905072501 76 154 0.0 0.0 0.00 0.00 0.00 91 1012.4
20260905071957 76 154 0.0 0.0 0.00 0.00 0.00 91 1012.5
20260905071454 76 154 0.0 0.0 0.00 0.00 0.00 91 1012.5
20260905070953 76 154 0.0 0.0 0.00 0.00 0.00 91 1012.6
20260905070450 76 154 0.0 0.0 0.00 0.00 0.00 91 1012.6
20260905065949 76 154 0.0 0.0 0.00 0.00 0.00 91 1012.8
20260905065448 76 154 0.0 0.0 0.00 0.00 0.00 91 1012.8
20260905064943 76 154 0.0 0.0 0.00 0.00 0.00 91 1012.7
20260905064443 76 154 0.0 0.0 0.00 0.00 0.00 91 1012.8
20260905063938 77 154 0.0 0.0 0.00 0.00 0.00 91 1012.9
20260905063433 77 154 0.0 0.0 0.00 0.00 0.00 91 1013.0
20260905062929 77 154 0.0 0.0 0.00 0.00 0.00 91 1013.0
20260905062424 77 154 0.0 0.0 0.00 0.00 0.00 90 1013.2
20260905061919 77 154 0.0 0.0 0.00 0.00 0.00 89 1013.4
20260905061418 77 154 0.0 0.0 0.00 0.00 0.00 89 1013.3
20260905060918 77 154 0.0 0.0 0.00 0.00 0.00 89 1013.4
20260905060414 77 154 0.0 0.0 0.00 0.00 0.00 89 1013.4
20260905055913 77 154 0.0 0.0 0.00 0.00 0.00 89 1013.6
20260905055409 77 154 0.0 0.0 0.00 0.00 0.00 89 1013.2
20260905054908 77 154 0.0 0.0 0.00 0.00 0.00 89 1013.6
20260905054405 77 154 0.0 0.0 0.00 0.00 0.00 90 1013.4
20260905053904 77 154 0.0 0.0 0.00 0.00 0.00 90 1013.6
20260905053359 77 154 0.0 0.0 0.00 0.00 0.00 90 1013.6
20260905052855 77 154 0.0 0.0 0.00 0.00 0.00 90 1013.7
20260905052354 77 154 0.0 0.0 0.00 0.00 0.00 90 1013.7
20260905051853 77 154 0.0 0.0 0.00 0.00 0.00 89 1014.0
20260905051349 77 154 0.0 0.0 0.00 0.00 0.00 89 1013.8
20260905050846 77 154 0.0 0.0 0.00 0.00 0.00 89 1013.8
20260905050342 77 154 0.0 0.0 0.00 0.00 0.00 88 1014.0
20260905045842 78 154 0.0 0.0 0.00 0.00 0.00 88 1014.1
20260905045337 78 154 0.0 0.0 0.00 0.00 0.00 88 1014.0
20260905044833 78 154 0.0 0.0 0.00 0.00 0.00 88 1014.0
20260905044328 78 154 0.0 0.0 0.00 0.00 0.00 87 1014.0
20260905043826 78 154 0.0 0.0 0.00 0.00 0.00 87 1014.0
20260905043321 78 154 0.0 0.0 0.00 0.00 0.00 87 1014.1
20260905042817 78 154 0.0 0.0 0.00 0.00 0.00 86 1014.3
20260905042316 78 154 0.0 0.0 0.00 0.00 0.00 86 1014.2
20260905041811 78 154 0.0 0.0 0.00 0.00 0.00 86 1014.2
20260905041307 78 154 0.0 0.0 0.00 0.00 0.00 86 1014.2
20260905040802 78 154 0.0 0.0 0.00 0.00 0.00 86 1014.2
20260905040300 79 154 0.0 0.0 0.00 0.00 0.00 86 1014.1
20260905035755 79 154 0.0 0.0 0.00 0.00 0.00 85 1014.1
20260905035252 79 154 0.0 0.0 0.00 0.00 0.00 86 1014.2
20260905034748 79 154 0.0 0.0 0.00 0.00 0.00 86 1014.2
20260905034248 79 154 0.0 0.0 0.00 0.00 0.00 86 1014.3
20260905033746 79 154 0.0 0.0 0.00 0.00 0.00 86 1014.2
20260905033242 79 154 0.0 0.0 0.00 0.00 0.00 86 1014.2
20260905032741 79 154 0.0 0.0 0.00 0.00 0.00 85 1014.2
20260905032237 79 154 0.0 0.0 0.00 0.00 0.00 84 1014.4
20260905031732 79 154 0.0 0.0 0.00 0.00 0.00 84 1014.3
20260905031228 80 154 0.0 0.0 0.00 0.00 0.00 84 1014.4
20260905030723 80 154 0.0 0.0 0.00 0.00 0.00 83 1014.3
20260905030219 80 154 0.0 0.0 0.00 0.00 0.00 84 1014.3
20260905025719 80 154 0.0 0.0 0.00 0.00 0.00 85 1014.3
20260905025214 80 154 0.0 0.0 0.00 0.00 0.00 84 1014.1
20260905024710 80 154 0.0 0.0 0.00 0.00 0.00 83 1014.2
20260905024206 81 154 0.0 0.0 0.00 0.00 0.00 82 1014.1
20260905023700 81 154 0.0 0.0 0.00 0.00 0.00 83 1014.1
20260905023200 81 154 0.0 0.0 0.00 0.00 0.00 83 1014.2
20260905022659 81 154 0.0 0.0 0.00 0.00 0.00 83 1014.3
20260905022155 81 154 0.0 0.0 0.00 0.00 0.00 83 1014.0
20260905021654 82 154 0.0 0.0 0.00 0.00 0.00 83 1014.1
20260905021150 82 154 0.0 0.0 0.00 0.00 0.00 82 1014.1
20260905020645 82 154 0.0 0.0 0.00 0.00 0.00 82 1014.2
20260905020140 82 154 0.0 0.0 0.00 0.00 0.00 82 1014.0
20260905015638 82 154 0.0 0.0 0.00 0.00 0.00 82 1014.2
20260905015134 82 154 0.0 0.0 0.00 0.00 0.00 82 1014.2
20260905014632 82 154 0.0 0.0 0.00 0.00 0.00 82 1014.0
20260905014128 82 154 0.0 0.0 0.00 0.00 0.00 82 1014.0
20260905013625 82 154 0.0 0.0 0.00 0.00 0.00 82 1014.0
20260905013120 82 154 0.0 0.0 0.00 0.00 0.00 82 1014.0
20260905012620 82 154 0.0 0.0 0.00 0.00 0.00 82 1013.7
20260905012117 83 154 0.0 0.0 0.00 0.00 0.00 82 1014.0
20260905011613 83 154 0.0 0.0 0.00 0.00 0.00 81 1014.0
20260905011108 83 154 0.0 0.0 0.00 0.00 0.00 81 1014.0
20260905010608 83 154 0.0 0.0 0.00 0.00 0.00 80 1014.0
20260905010105 83 154 0.0 0.0 0.00 0.00 0.00 80 1013.7
20260905005600 83 154 0.0 0.0 0.00 0.00 0.00 79 1013.7
20260905005056 84 154 0.0 0.0 0.00 0.00 0.00 80 1013.7
20260905004555 84 154 0.0 0.0 0.00 0.00 0.00 79 1013.5
20260905004050 84 154 0.0 0.0 0.00 0.00 0.00 78 1013.7
20260905003547 84 154 0.0 0.0 0.00 0.00 0.00 78 1013.7
20260905003042 85 154 0.0 0.0 0.00 0.00 0.00 77 1013.3
20260905002537 85 154 0.0 0.0 0.00 0.00 0.00 76 1013.4
20260905002032 85 154 0.0 0.0 0.00 0.00 0.00 76 1013.6
20260905001527 86 154 0.0 0.0 0.00 0.00 0.00 76 1013.6
20260905001026 86 154 0.0 0.0 0.00 0.00 0.00 76 1013.6
20260905000522 86 154 0.0 0.0 0.00 0.00 0.00 75 1013.7
20260905000018 86 154 0.0 0.0 0.00 0.00 0.00 74 1013.7
20260904235513 87 154 0.0 0.0 0.00 0.00 0.00 74 1013.6
20260904235012 87 154 0.0 0.0 0.00 0.00 0.00 73 1013.6
20260904234512 87 154 0.0 0.0 0.00 0.00 0.00 72 1013.7
20260904234009 87 154 0.0 0.0 0.00 0.00 0.00 71 1013.6
20260904233503 88 155 0.0 0.0 0.00 0.00 0.00 72 1013.7
20260904233000 88 155 0.0 0.0 0.00 0.00 0.00 72 1013.5
20260904232456 88 155 0.0 0.0 0.00 0.00 0.00 70 1013.8
20260904231952 89 155 0.0 1.0 0.00 0.00 0.00 69 1013.6
20260904231447 89 155 0.0 0.0 0.00 0.00 0.00 69 1013.3
20260904230937 89 158 0.0 0.0 0.00 0.00 0.00 68 1013.6
20260904230436 90 157 0.0 0.0 0.00 0.00 0.00 67 1013.5
20260904225931 90 157 0.0 0.0 0.00 0.00 0.00 67 1013.5
20260904225429 90 156 0.0 0.0 0.00 0.00 0.00 67 1013.4
20260904224928 90 156 0.0 0.0 0.00 0.00 0.00 67 1013.6
20260904224425 90 202 0.0 1.0 0.00 0.00 0.00 66 1013.4
20260904223924 91 192 0.0 0.0 0.00 0.00 0.00 66 1013.5
20260904223423 91 229 0.0 0.0 0.00 0.00 0.00 64 1013.5
20260904222919 92 229 0.0 0.0 0.00 0.00 0.00 62 1013.3
20260904222414 93 229 0.0 0.0 0.00 0.00 0.00 58 1013.3
20260904221914 92 203 0.0 0.0 0.00 0.00 0.00 56 1013.1
20260904221409 92 177 0.0 0.0 0.00 0.00 0.00 61 1013.3
20260904220904 92 150 0.0 0.0 0.00 0.00 0.00 61 1013.1
20260904220403 92 151 0.0 0.0 0.00 0.00 0.00 60 1013.2
20260904215859 92 151 1.0 1.0 0.00 0.00 0.00 63 1013.2
20260904215354 93 152 0.0 1.0 0.00 0.00 0.00 61 1013.1
20260904214850 95 147 1.0 2.0 0.00 0.00 0.00 58 1013.1